Gainesville, TX

2:03 PM CDT on March 26, 2017 (GMT -0500)
Gainesville Municipal

Weather History for KGLE - October, 2013

Change the Weather History Date:

Thursday, October 10, 2013

  Actual Average (KDTO) Record (KDTO)
Temperature  
Mean Temperature 68 °F -  
Max Temperature 81 °F 77 °F 91 °F (2014)
Min Temperature 55 °F 53 °F 35 °F (2000)
Cooling Degree Days 3    
Growing Degree Days 18 (Base 50)    
Moisture  
Dew Point 56 °F    
Average Humidity 69    
Maximum Humidity 94    
Minimum Humidity 39    
Precipitation  
Precipitation 0.03 in - - ()
Sea Level Pressure  
Sea Level Pressure 30.00 in    
Wind  
Wind Speed 7 mph (SE)    
Max Wind Speed 17 mph    
Max Gust Speed 25 mph    
Visibility 10 miles    
Events      
Averages and records for this station are not official NWS values.
T = Trace of Precipitation, MM = Missing Value Source: NWS Daily Summary

Daily Weather History Graph

Daily Weather History Graph

Search for Another Location

Airport or City:

Trip Planner

Search our weather history database for the weather conditions in past years. The results will help you decide how hot, cold, wet, or windy it might be!

Date:

Astronomy

Oct. 10, 2013 Rise Set
Actual Time 7:29 AM CDT 7:00 PM CDT
Civil Twilight 7:04 AM CDT 7:25 PM CDT
Nautical Twilight 6:36 AM CDT 7:54 PM CDT
Astronomical Twilight 6:07 AM CDT 8:23 PM CDT
Moon 1:12 PM CDT (10/10) 11:50 PM CDT (10/10)
Length of Visible Light 12h 20m
Length of Day
11h 30m
Waxing Crescent, 36% of the Moon is Illuminated
Oct 10
Waxing Crescent
Oct 11
First Quarter
Oct 18
Full
Oct 26
Last Quarter
Nov 3
New

Hourly Weather History & Observations

Time (CDT) Temp. Heat Index Dew Point Humidity Pressure Visibility Wind Dir Wind Speed Gust Speed Precip Events Conditions
12:15 AM 58.3 °F - 52.7 °F 82% 30.05 in 10.0 mi East 4.6 mph - N/A   Clear
12:35 AM 58.3 °F - 53.1 °F 83% 30.05 in 10.0 mi East 4.6 mph - N/A   Clear
12:55 AM 58.3 °F - 53.6 °F 84% 30.04 in 10.0 mi East 4.6 mph - N/A   Clear
1:15 AM 57.2 °F - 53.1 °F 86% 30.04 in 10.0 mi East 5.8 mph - N/A   Clear
1:35 AM 57.2 °F - 53.4 °F 87% 30.05 in 10.0 mi East 4.6 mph - N/A   Clear
1:55 AM 58.1 °F - 54.0 °F 86% 30.05 in 10.0 mi East 4.6 mph - N/A   Clear
2:15 AM 58.3 °F - 54.0 °F 86% 30.05 in 10.0 mi Calm Calm - N/A   Clear
2:35 AM 58.3 °F - 54.1 °F 86% 30.05 in 10.0 mi ESE 3.5 mph - N/A   Clear
2:55 AM 57.2 °F - 53.6 °F 88% 30.05 in 10.0 mi East 3.5 mph - N/A   Clear
3:15 AM 56.5 °F - 53.2 °F 89% 30.05 in 10.0 mi ESE 3.5 mph - N/A   Clear
3:35 AM 55.8 °F - 52.7 °F 89% 30.05 in 10.0 mi ESE 3.5 mph - N/A   Clear
3:55 AM 55.8 °F - 52.9 °F 90% 30.04 in 10.0 mi ESE 3.5 mph - N/A   Clear
4:15 AM 55.8 °F - 52.9 °F 90% 30.04 in 10.0 mi East 3.5 mph - N/A   Clear
4:35 AM 55.8 °F - 53.1 °F 91% 30.04 in 10.0 mi ESE 3.5 mph - N/A   Clear
4:55 AM 55.8 °F - 53.4 °F 92% 30.04 in 10.0 mi ESE 4.6 mph - N/A   Clear
5:15 AM 55.8 °F - 53.6 °F 92% 30.04 in 10.0 mi ESE 4.6 mph - N/A   Clear
5:35 AM 55.8 °F - 53.6 °F 92% 30.05 in 10.0 mi ESE 4.6 mph - N/A   Clear
5:55 AM 55.8 °F - 53.8 °F 93% 30.05 in 10.0 mi ESE 5.8 mph - N/A   Clear
6:15 AM 55.8 °F - 53.8 °F 93% 30.05 in 10.0 mi East 3.5 mph - N/A   Clear
6:35 AM 55.8 °F - 53.6 °F 92% 30.05 in 10.0 mi Calm Calm - N/A   Clear
6:55 AM 55.8 °F - 53.6 °F 92% 30.05 in 10.0 mi ESE 3.5 mph - N/A   Clear
7:15 AM 55.8 °F - 54.0 °F 94% 30.06 in 10.0 mi ESE 3.5 mph - N/A   Clear
7:35 AM 55.8 °F - 53.8 °F 93% 30.06 in 10.0 mi ESE 3.5 mph - N/A   Clear
7:55 AM 55.8 °F - 54.0 °F 94% 30.06 in 10.0 mi ESE 3.5 mph - N/A   Clear
8:15 AM 55.8 °F - 54.0 °F 94% 30.07 in 10.0 mi Calm Calm - N/A   Clear
8:35 AM 57.2 °F - 55.2 °F 93% 30.07 in 10.0 mi SE 3.5 mph - N/A   Clear
8:55 AM 58.6 °F - 56.5 °F 93% 30.08 in 10.0 mi SE 4.6 mph - N/A   Clear
9:15 AM 63.3 °F - 60.6 °F 91% 30.07 in 10.0 mi SE 5.8 mph - N/A   Clear
9:35 AM 65.8 °F - 62.6 °F 89% 30.07 in 10.0 mi SSE 9.2 mph - N/A   Clear
9:55 AM 68.4 °F - 63.0 °F 83% 30.08 in 10.0 mi SSE 8.1 mph - N/A   Clear
10:15 AM 70.9 °F - 63.9 °F 78% 30.07 in 10.0 mi South 11.5 mph - N/A   Clear
10:35 AM 70.9 °F - 62.8 °F 75% 30.07 in 10.0 mi SSE 11.5 mph 17.3 mph N/A   Clear
10:55 AM 72.7 °F - 63.3 °F 72% 30.07 in 10.0 mi SSE 13.8 mph 18.4 mph N/A   Clear
11:15 AM 73.4 °F - 62.1 °F 68% 30.07 in 10.0 mi SSE 13.8 mph 19.6 mph N/A   Clear
11:35 AM 73.8 °F - 61.7 °F 66% 30.06 in 10.0 mi SSE 13.8 mph 19.6 mph N/A   Clear
11:55 AM 75.6 °F - 63.0 °F 65% 30.06 in 10.0 mi South 8.1 mph - N/A   Scattered Clouds
12:15 PM - - - N/A% - - North - - N/A   Unknown
12:35 PM - - - N/A% - - North - - N/A   Unknown
12:55 PM 79.5 °F - 59.9 °F 51% 30.03 in 10.0 mi SSE 15.0 mph 18.4 mph 0.03 in   Scattered Clouds
1:15 PM 79.0 °F - 58.6 °F 50% 30.02 in 10.0 mi South 16.1 mph 20.7 mph N/A   Scattered Clouds
1:35 PM 78.4 °F - 59.4 °F 52% 30.01 in 10.0 mi SSE 15.0 mph 21.9 mph N/A   Scattered Clouds
1:55 PM 79.0 °F - 59.4 °F 51% 29.99 in 10.0 mi SE 15.0 mph 19.6 mph N/A   Scattered Clouds
2:15 PM 80.6 °F 81.0 °F 58.5 °F 47% 29.98 in 10.0 mi SE 16.1 mph 19.6 mph N/A   Scattered Clouds
2:35 PM 80.6 °F 80.9 °F 57.9 °F 46% 29.98 in 10.0 mi SE 17.3 mph 20.7 mph N/A   Clear
2:55 PM 81.0 °F 81.0 °F 57.2 °F 44% 29.97 in 10.0 mi SSE 11.5 mph - N/A   Clear
3:15 PM 81.0 °F 81.0 °F 56.8 °F 44% 29.96 in 10.0 mi SSE 15.0 mph 20.7 mph N/A   Clear
3:35 PM 81.0 °F 80.8 °F 56.1 °F 42% 29.95 in 10.0 mi SSE 17.3 mph 20.7 mph N/A   Clear
3:55 PM 81.0 °F 80.8 °F 55.6 °F 42% 29.95 in 10.0 mi SSE 13.8 mph 20.7 mph N/A   Clear
4:15 PM 81.3 °F 80.8 °F 54.3 °F 39% 29.94 in 10.0 mi SSE 17.3 mph 21.9 mph N/A   Clear
4:35 PM 81.0 °F 80.6 °F 54.5 °F 40% 29.94 in 10.0 mi SSE 15.0 mph 21.9 mph N/A   Clear
4:55 PM 81.0 °F 80.6 °F 54.3 °F 40% 29.93 in 10.0 mi SSE 16.1 mph 23.0 mph N/A   Clear
5:15 PM 80.8 °F 80.5 °F 54.3 °F 40% 29.92 in 10.0 mi SSE 15.0 mph 25.3 mph N/A   Clear
5:35 PM 79.7 °F - 54.0 °F 41% 29.92 in 10.0 mi SE 12.7 mph 20.7 mph N/A   Clear
5:55 PM 79.7 °F - 54.0 °F 41% 29.92 in 10.0 mi SE 16.1 mph - N/A   Clear
6:15 PM 78.4 °F - 54.0 °F 43% 29.91 in 10.0 mi SE 12.7 mph 21.9 mph N/A   Clear
6:35 PM 78.4 °F - 54.3 °F 43% 29.91 in 10.0 mi SE 11.5 mph 19.6 mph N/A   Clear
6:55 PM 77.0 °F - 54.9 °F 46% 29.90 in 10.0 mi SE 11.5 mph - N/A   Clear
7:15 PM 76.1 °F - 55.0 °F 48% 29.90 in 10.0 mi ESE 11.5 mph - N/A   Clear
7:35 PM 74.3 °F - 54.5 °F 50% 29.91 in 10.0 mi ESE 9.2 mph - N/A   Clear
7:55 PM 73.4 °F - 54.0 °F 50% 29.91 in 10.0 mi ESE 10.4 mph - N/A   Clear
8:15 PM 73.4 °F - 54.7 °F 52% 29.92 in 10.0 mi SE 11.5 mph - N/A   Clear
8:35 PM 73.4 °F - 55.0 °F 52% 29.92 in 10.0 mi ESE 10.4 mph - N/A   Clear
8:55 PM 73.4 °F - 55.4 °F 53% 29.91 in 10.0 mi SE 11.5 mph - N/A   Clear
9:15 PM 73.4 °F - 55.8 °F 54% 29.91 in 10.0 mi ESE 12.7 mph 17.3 mph N/A   Clear
9:35 PM 73.4 °F - 56.8 °F 56% 29.91 in 10.0 mi SE 11.5 mph - N/A   Clear
9:55 PM 73.4 °F - 58.1 °F 59% 29.91 in 10.0 mi SE 9.2 mph - N/A   Clear
10:15 PM 73.4 °F - 59.0 °F 61% 29.91 in 10.0 mi SE 11.5 mph - N/A   Clear
10:35 PM 73.2 °F - 59.7 °F 63% 29.90 in 10.0 mi SE 11.5 mph - N/A   Clear
10:55 PM 70.9 °F - 58.1 °F 64% 29.90 in 10.0 mi SE 11.5 mph - N/A   Clear
11:15 PM 70.9 °F - 58.8 °F 66% 29.90 in 10.0 mi SE 10.4 mph - N/A   Clear
11:35 PM 69.6 °F - 58.5 °F 68% 29.90 in 10.0 mi SE 9.2 mph - N/A   Clear
11:55 PM 68.7 °F - 58.1 °F 69% 29.89 in 10.0 mi SE 8.1 mph - N/A   Clear